FW2068 Weather Reports


time (UTC)temp
F
wind
direction
speed
knots
gust
knots
rain 1hr
in
rain 24hr
in
rain mn
in
humidity
%
barometer
mb
20260509091154 69 132 9.6 13.0 0.00 0.00 0.00 94 1006.9
20260509090652 69 132 10.4 13.0 0.00 0.00 0.00 93 1007.1
20260509090149 69 120 7.0 14.8 0.00 0.00 0.00 93 1007.3
20260509085647 69 127 7.8 10.4 0.00 0.00 0.00 93 1007.9
20260509085143 69 136 6.1 10.4 0.00 0.00 0.00 93 1008.0
20260509084640 69 140 6.1 9.6 0.00 0.00 0.00 92 1008.4
20260509084137 69 124 7.0 11.3 0.00 0.00 0.00 92 1008.6
20260509083634 69 131 4.3 9.6 0.00 0.00 0.00 92 1008.8
20260509083131 69 144 3.5 9.6 0.00 0.00 0.00 91 1008.8
20260509082628 69 156 7.0 9.6 0.00 0.00 0.00 91 1009.3
20260509082125 70 143 12.2 12.2 0.00 0.00 0.00 91 1009.6
20260509081622 70 135 7.0 8.7 0.00 0.00 0.00 90 1009.6
20260509081119 70 155 4.3 5.2 0.00 0.00 0.00 90 1010.0
20260509080617 70 186 1.7 3.5 0.00 0.00 0.00 90 1010.2
20260509080115 70 171 3.5 5.2 0.00 0.00 0.00 90 1010.0
20260509075612 70 155 4.3 4.3 0.00 0.00 0.00 90 1010.1
20260509075110 70 137 0.0 1.7 0.00 0.00 0.00 90 1010.2
20260509074607 70 170 0.0 1.7 0.00 0.00 0.00 90 1010.2
20260509074103 70 136 0.9 1.7 0.00 0.00 0.00 90 1010.6
20260509073600 70 187 0.0 1.7 0.00 0.00 0.00 90 1010.5
20260509073056 70 143 1.7 2.6 0.00 0.00 0.00 89 1010.7
20260509072553 70 243 0.0 1.7 0.00 0.00 0.00 90 1010.6
20260509072050 70 209 2.6 2.6 0.00 0.00 0.00 90 1010.6
20260509071546 70 130 2.6 2.6 0.00 0.00 0.00 90 1010.1
20260509071044 69 155 2.6 4.3 0.00 0.00 0.00 90 1009.9
20260509070541 69 154 4.3 7.0 0.00 0.00 0.00 89 1009.9
20260509070037 69 151 4.3 5.2 0.00 0.00 0.00 89 1009.9
20260509065532 69 153 3.5 4.3 0.00 0.00 0.00 89 1009.7
20260509065029 69 147 2.6 3.5 0.00 0.00 0.00 89 1009.9
20260509064527 70 137 2.6 4.3 0.00 0.00 0.00 88 1009.8
20260509064025 70 124 1.7 5.2 0.00 0.00 0.00 88 1009.5
20260509063520 70 150 3.5 4.3 0.00 0.00 0.00 87 1010.0
20260509063017 70 170 1.7 1.7 0.00 0.00 0.00 87 1010.1
20260509062514 71 147 2.6 4.3 0.00 0.00 0.00 86 1010.1
20260509062012 71 128 2.6 4.3 0.00 0.00 0.00 85 1010.3
20260509061509 71 231 1.7 2.6 0.00 0.00 0.00 85 1010.4
20260509061006 71 276 0.9 2.6 0.00 0.00 0.00 85 1010.4
20260509060503 71 159 3.5 5.2 0.00 0.00 0.00 86 1009.9
20260509055959 71 172 2.6 4.3 0.00 0.00 0.00 84 1010.3
20260509055454 71 274 0.0 0.9 0.00 0.00 0.00 85 1010.9
20260509054951 71 166 1.7 1.7 0.00 0.00 0.00 84 1010.6
20260509054448 71 131 0.0 0.9 0.00 0.00 0.00 84 1011.0
20260509053946 71 297 0.0 0.0 0.00 0.00 0.00 84 1011.1
20260509053444 71 87 0.0 2.6 0.00 0.00 0.00 84 1010.8
20260509052941 71 58 1.7 3.5 0.00 0.00 0.00 84 1010.4
20260509052438 71 137 5.2 6.1 0.00 0.00 0.00 84 1010.2
20260509051936 72 159 2.6 4.3 0.00 0.00 0.00 84 1010.3
20260509051434 72 138 1.7 6.1 0.00 0.00 0.00 83 1010.0
20260509050931 72 156 7.8 9.6 0.00 0.00 0.00 83 1009.6
20260509050427 72 160 4.3 5.2 0.00 0.00 0.00 83 1010.0
20260509045924 72 156 5.2 7.8 0.00 0.00 0.00 83 1009.7
20260509045421 72 138 7.0 9.6 0.00 0.00 0.00 84 1009.3
20260509044918 72 138 7.8 11.3 0.00 0.00 0.00 83 1009.2
20260509044416 72 134 7.0 7.0 0.00 0.00 0.00 82 1009.8
20260509043913 72 116 3.5 4.3 0.00 0.00 0.00 83 1010.1
20260509043408 72 137 3.5 4.3 0.00 0.00 0.00 82 1010.2
20260509042904 73 124 1.7 2.6 0.00 0.00 0.00 81 1010.4
20260509042401 73 159 2.6 2.6 0.00 0.00 0.00 80 1010.7
20260509041857 73 237 1.7 1.7 0.00 0.00 0.00 80 1010.5
20260509041354 73 212 0.0 1.7 0.00 0.00 0.00 81 1010.6
20260509040853 73 110 0.0 1.7 0.00 0.00 0.00 81 1010.6
20260509040350 73 109 1.7 4.3 0.00 0.00 0.00 81 1010.5
20260509035847 73 144 3.5 4.3 0.00 0.00 0.00 81 1010.3
20260509035344 73 141 1.7 3.5 0.00 0.00 0.00 81 1010.3
20260509034840 73 151 1.7 3.5 0.00 0.00 0.00 81 1010.3
20260509034338 73 176 2.6 3.5 0.00 0.00 0.00 81 1010.0
20260509033834 73 126 3.5 4.3 0.00 0.00 0.00 81 1010.1
20260509033332 73 142 1.7 2.6 0.00 0.00 0.00 81 1009.7
20260509032828 73 139 2.6 5.2 0.00 0.00 0.00 81 1009.8
20260509032326 73 158 2.6 3.5 0.00 0.00 0.00 81 1009.9
20260509031824 73 138 3.5 3.5 0.00 0.00 0.00 81 1009.8
20260509031321 72 144 2.6 2.6 0.00 0.00 0.00 81 1009.8
20260509030818 72 139 2.6 5.2 0.00 0.00 0.00 80 1009.7
20260509030316 72 131 3.5 3.5 0.00 0.00 0.00 80 1009.5
20260509025813 72 109 1.7 3.5 0.00 0.00 0.00 80 1009.8
20260509025308 72 118 2.6 3.5 0.00 0.00 0.00 80 1009.5
20260509024804 72 132 3.5 3.5 0.00 0.00 0.00 80 1009.5
20260509024300 72 148 4.3 5.2 0.00 0.00 0.00 80 1009.4
20260509023757 72 135 4.3 6.1 0.00 0.00 0.00 79 1009.0
20260509023255 72 139 4.3 8.7 0.00 0.00 0.00 79 1009.0
20260509022750 72 134 5.2 7.0 0.00 0.00 0.00 78 1009.0
20260509022248 73 134 5.2 7.0 0.00 0.00 0.00 78 1009.1
20260509021745 73 140 2.6 4.3 0.00 0.00 0.00 78 1009.1
20260509021242 73 137 3.5 5.2 0.00 0.00 0.00 78 1009.2
20260509020740 73 127 3.5 6.1 0.00 0.00 0.00 77 1009.1
20260509020237 73 143 1.7 5.2 0.00 0.00 0.00 78 1009.0
20260509015735 73 141 2.6 5.2 0.00 0.00 0.00 77 1009.0
20260509015233 73 159 2.6 4.3 0.00 0.00 0.00 76 1009.2
20260509014729 73 142 1.7 5.2 0.00 0.00 0.00 76 1009.1
20260509014226 73 158 5.2 6.1 0.00 0.00 0.00 76 1008.9
20260509013723 73 128 3.5 5.2 0.00 0.00 0.00 77 1008.9
20260509013218 73 159 4.3 5.2 0.00 0.00 0.00 76 1008.9
20260509012715 73 141 2.6 5.2 0.00 0.00 0.00 77 1008.9
20260509012212 73 154 2.6 4.3 0.00 0.00 0.00 78 1008.6
20260509011710 73 149 3.5 6.1 0.00 0.00 0.00 78 1008.5
20260509011207 73 131 3.5 5.2 0.00 0.00 0.00 78 1008.4
20260509010705 73 131 3.5 5.2 0.00 0.00 0.00 78 1008.3
20260509010201 73 151 5.2 7.0 0.00 0.00 0.00 77 1008.2
20260509005659 73 114 1.7 4.3 0.00 0.00 0.00 78 1008.2
20260509005155 73 113 3.5 7.0 0.00 0.00 0.00 77 1008.1
20260509004650 73 153 5.2 6.1 0.00 0.00 0.00 77 1008.2
20260509004148 73 123 5.2 7.0 0.00 0.00 0.00 76 1008.2
20260509003646 73 116 2.6 5.2 0.00 0.00 0.00 77 1008.1
20260509003143 73 131 6.1 11.3 0.00 0.00 0.00 76 1008.2
20260509002641 73 146 5.2 6.1 0.00 0.00 0.00 76 1008.4
20260509002138 74 118 2.6 4.3 0.00 0.00 0.00 76 1008.2
20260509001636 73 138 3.5 5.2 0.00 0.00 0.00 75 1008.2
20260509001131 74 134 4.3 4.3 0.00 0.00 0.00 76 1008.3
20260509000629 74 140 3.5 5.2 0.00 0.00 0.00 76 1008.4
20260509000126 73 150 5.2 7.0 0.00 0.00 0.00 75 1008.5
20260508235623 73 145 3.5 7.0 0.00 0.00 0.00 75 1008.6
20260508235119 74 161 3.5 5.2 0.00 0.00 0.00 75 1008.6
20260508234617 74 161 7.8 8.7 0.00 0.00 0.00 74 1008.7
20260508234113 74 131 3.5 8.7 0.00 0.00 0.00 74 1008.6
20260508233613 74 128 2.6 5.2 0.00 0.00 0.00 74 1008.8
20260508233110 73 156 6.1 6.1 0.00 0.00 0.00 74 1008.7
20260508232607 74 127 3.5 5.2 0.00 0.00 0.00 73 1008.7
20260508232103 74 104 2.6 6.1 0.00 0.00 0.00 74 1008.5
20260508231601 74 152 3.5 6.1 0.00 0.00 0.00 74 1008.7
20260508231058 74 136 3.5 4.3 0.00 0.00 0.00 73 1008.6
20260508230554 73 202 1.7 4.3 0.00 0.00 0.00 73 1008.8
20260508230051 73 164 1.7 4.3 0.00 0.00 0.00 73 1008.6
20260508225549 73 100 2.6 3.5 0.00 0.00 0.00 73 1008.8
20260508225045 73 142 4.3 7.0 0.00 0.00 0.00 72 1009.0
20260508224543 73 152 3.5 5.2 0.00 0.00 0.00 72 1008.8
20260508224040 73 145 6.1 6.1 0.00 0.00 0.00 71 1009.0
20260508223538 73 140 5.2 6.1 0.00 0.00 0.00 71 1009.0
20260508223035 73 208 2.6 6.1 0.00 0.00 0.00 72 1009.0
20260508222533 73 186 5.2 7.8 0.00 0.00 0.00 71 1009.0
20260508222029 73 153 8.7 11.3 0.00 0.00 0.00 72 1008.9
20260508221525 74 194 6.1 7.8 0.00 0.00 0.00 69 1008.8
20260508221021 74 159 7.8 9.6 0.00 0.00 0.00 70 1008.8
20260508220518 74 153 6.1 8.7 0.00 0.00 0.00 71 1008.9
20260508220014 74 224 3.5 6.1 0.00 0.00 0.00 72 1008.9
20260508215511 74 243 4.3 5.2 0.00 0.00 0.00 72 1008.9
20260508215008 73 287 6.1 7.8 0.00 0.00 0.00 73 1008.6
20260508214506 74 287 5.2 5.2 0.00 0.00 0.00 74 1008.6
20260508214001 73 290 5.2 10.4 0.00 0.00 0.00 76 1008.5
20260508213459 74 317 2.6 9.6 0.00 0.00 0.00 76 1008.0
20260508212954 71 140 5.2 15.6 0.00 0.00 0.00 79 1006.5
20260508212451 72 113 5.2 15.6 0.00 0.00 0.00 78 1007.8
20260508211947 72 151 5.2 8.7 0.00 0.00 0.00 78 1009.3
20260508211443 72 194 4.3 7.8 0.00 0.00 0.00 77 1010.3
20260508210940 72 201 3.5 8.7 0.00 0.00 0.00 77 1009.9
20260508210437 74 156 7.8 9.6 0.00 0.00 0.00 75 1009.8
20260508205933 74 248 3.5 4.3 0.00 0.00 0.00 70 1010.5
20260508205430 75 134 0.9 4.3 0.00 0.00 0.00 69 1010.5
20260508204927 75 243 2.6 5.2 0.00 0.00 0.00 68 1010.4
20260508204424 75 138 6.1 7.0 0.00 0.00 0.00 68 1010.8
20260508203919 75 228 3.5 7.8 0.00 0.00 0.00 67 1010.5
20260508203416 76 141 7.0 8.7 0.00 0.00 0.00 66 1010.4
20260508202912 77 210 2.6 5.2 0.00 0.00 0.00 65 1010.3
20260508202409 77 203 1.7 7.8 0.00 0.00 0.00 63 1010.4
20260508201906 77 170 2.6 6.1 0.00 0.00 0.00 64 1010.3
20260508201403 77 142 4.3 7.8 0.00 0.00 0.00 64 1010.4
20260508200859 77 166 4.3 10.4 0.00 0.00 0.00 65 1010.3
20260508200356 78 195 4.3 11.3 0.00 0.00 0.00 64 1010.3
20260508195852 77 130 4.3 6.1 0.00 0.00 0.00 65 1010.3
20260508195349 77 160 5.2 7.8 0.00 0.00 0.00 64 1010.4
20260508194845 76 159 4.3 11.3 0.00 0.00 0.00 64 1010.5
20260508194342 77 164 5.2 9.6 0.00 0.00 0.00 63 1010.5
20260508193839 77 137 3.5 7.8 0.00 0.00 0.00 63 1010.4
20260508193336 76 144 7.0 8.7 0.00 0.00 0.00 63 1010.8
20260508192832 76 158 5.2 10.4 0.00 0.00 0.00 64 1010.8
20260508192329 76 152 6.1 11.3 0.00 0.00 0.00 65 1010.7
20260508191826 76 168 7.8 13.0 0.00 0.00 0.00 63 1010.9
20260508191324 76 159 7.8 11.3 0.00 0.00 0.00 65 1010.7
20260508190821 77 141 5.2 10.4 0.00 0.00 0.00 62 1011.0
20260508190317 78 140 8.7 9.6 0.00 0.00 0.00 62 1011.0
20260508185813 77 162 6.1 10.4 0.00 0.00 0.00 63 1011.1
20260508185311 77 153 3.5 11.3 0.00 0.00 0.00 63 1011.0
20260508184808 77 158 6.1 13.0 0.00 0.00 0.00 63 1010.9
20260508184305 77 139 4.3 8.7 0.00 0.00 0.00 64 1010.9
20260508183803 77 154 3.5 13.0 0.00 0.00 0.00 64 1011.1
20260508183259 78 66 2.6 11.3 0.00 0.00 0.00 61 1011.3
20260508182755 78 101 3.5 11.3 0.00 0.00 0.00 61 1011.4
20260508182252 77 119 3.5 11.3 0.00 0.00 0.00 63 1011.3
20260508181747 77 136 6.1 8.7 0.00 0.00 0.00 64 1011.5
20260508181244 77 145 10.4 13.0 0.00 0.00 0.00 62 1011.6
20260508180741 77 132 3.5 5.2 0.00 0.00 0.00 62 1011.6
20260508180238 76 122 4.3 9.6 0.00 0.00 0.00 63 1011.7
20260508175734 76 167 5.2 5.2 0.00 0.00 0.00 63 1011.9
20260508175231 76 97 2.6 8.7 0.00 0.00 0.00 61 1012.0
20260508174729 76 89 3.5 5.2 0.00 0.00 0.00 62 1012.0
20260508174226 77 97 3.5 6.1 0.00 0.00 0.00 63 1012.0
20260508173722 75 177 5.2 11.3 0.00 0.00 0.00 66 1012.1
20260508173218 75 162 3.5 5.2 0.00 0.00 0.00 65 1012.4
20260508172715 75 132 4.3 9.6 0.00 0.00 0.00 64 1012.1
20260508172212 75 146 6.1 9.6 0.00 0.00 0.00 66 1012.3
20260508171708 75 133 4.3 5.2 0.00 0.00 0.00 63 1012.4
20260508171205 74 142 3.5 7.8 0.00 0.00 0.00 64 1012.5
20260508170702 74 122 4.3 10.4 0.00 0.00 0.00 64 1012.7
20260508170200 73 160 5.2 7.8 0.00 0.00 0.00 65 1012.9
20260508165657 73 161 4.3 9.6 0.00 0.00 0.00 65 1013.0
20260508165154 73 160 7.0 9.6 0.00 0.00 0.00 65 1013.1
20260508164650 72 133 7.0 10.4 0.00 0.00 0.00 67 1013.2
20260508164147 73 139 5.2 8.7 0.00 0.00 0.00 66 1013.4
20260508163645 72 140 5.2 10.4 0.00 0.00 0.00 67 1013.4
20260508163142 72 152 5.2 8.7 0.00 0.00 0.00 66 1013.7
20260508162637 71 118 7.8 9.6 0.00 0.00 0.00 68 1013.7
20260508162135 71 93 6.1 7.8 0.00 0.00 0.00 68 1013.6
20260508161632 72 148 8.7 11.3 0.00 0.00 0.00 67 1013.6
20260508161129 71 148 7.0 7.8 0.00 0.00 0.00 67 1013.9
20260508160627 71 121 3.5 8.7 0.00 0.00 0.00 67 1013.7
20260508160125 71 133 4.3 8.7 0.00 0.00 0.00 67 1013.7
20260508155621 71 136 6.1 8.7 0.00 0.00 0.00 68 1013.9
20260508155118 70 164 6.1 8.7 0.00 0.00 0.00 68 1013.9
20260508154615 70 136 7.0 7.8 0.00 0.00 0.00 68 1014.2
20260508154112 70 180 5.2 7.0 0.00 0.00 0.00 68 1014.1
20260508153609 70 147 1.7 7.0 0.00 0.00 0.00 69 1014.2
20260508153105 69 181 4.3 8.7 0.00 0.00 0.00 68 1014.2
20260508152602 69 153 7.0 8.7 0.00 0.00 0.00 68 1014.1
20260508152057 69 139 5.2 8.7 0.00 0.00 0.00 68 1014.4
20260508151555 69 137 7.8 9.6 0.00 0.00 0.00 68 1014.2
20260508151052 69 135 6.1 7.8 0.00 0.00 0.00 70 1014.3
20260508150549 69 148 8.7 10.4 0.00 0.00 0.00 69 1014.2
20260508150044 69 142 8.7 13.0 0.00 0.00 0.00 69 1014.4
20260508145541 69 131 5.2 9.6 0.00 0.00 0.00 71 1014.2
20260508145038 69 132 9.6 9.6 0.00 0.00 0.00 68 1014.3
20260508144536 69 123 5.2 9.6 0.00 0.00 0.00 69 1014.1
20260508144033 69 175 6.1 8.7 0.00 0.00 0.00 68 1014.0
20260508143530 70 140 5.2 7.8 0.00 0.00 0.00 68 1014.2
20260508143026 69 143 7.0 9.6 0.00 0.00 0.00 68 1014.2
20260508142524 69 138 4.3 7.0 0.00 0.00 0.00 69 1014.2
20260508142020 69 131 5.2 7.0 0.00 0.00 0.00 71 1014.3
20260508141517 68 129 6.1 9.6 0.00 0.00 0.00 69 1014.6
20260508141015 68 125 7.8 10.4 0.00 0.00 0.00 71 1014.6
20260508140512 68 132 7.0 7.8 0.00 0.00 0.00 70 1014.5
20260508140008 67 138 5.2 13.0 0.00 0.00 0.00 72 1014.5
20260508135504 67 151 5.2 10.4 0.00 0.00 0.00 74 1014.4
20260508135000 66 109 5.2 9.6 0.00 0.00 0.00 76 1014.6
20260508134457 66 124 3.5 8.7 0.00 0.00 0.00 75 1014.5
20260508133953 66 112 5.2 5.2 0.00 0.00 0.00 74 1014.5
20260508133451 66 127 3.5 5.2 0.00 0.00 0.00 75 1014.6
20260508132947 66 129 4.3 4.3 0.00 0.00 0.00 74 1014.5
20260508132446 66 101 2.6 5.2 0.00 0.00 0.00 73 1014.5
20260508131942 66 86 0.0 2.6 0.00 0.00 0.00 74 1014.6
20260508131438 66 70 1.7 2.6 0.00 0.00 0.00 75 1014.8
20260508130934 65 109 1.7 2.6 0.00 0.00 0.00 78 1014.9
20260508130432 64 147 0.0 0.9 0.00 0.00 0.00 80 1014.8
20260508125927 62 127 0.0 1.7 0.00 0.00 0.00 83 1014.7
20260508125423 61 95 2.6 2.6 0.00 0.00 0.00 83 1014.7
20260508124921 61 93 0.0 1.7 0.00 0.00 0.00 83 1014.6
20260508124419 61 103 2.6 2.6 0.00 0.00 0.00 83 1014.4
20260508123917 61 92 1.7 3.5 0.00 0.00 0.00 84 1014.2
20260508123415 61 79 1.7 2.6 0.00 0.00 0.00 85 1014.4
20260508122911 60 89 1.7 2.6 0.00 0.00 0.00 86 1014.4
20260508122408 60 109 1.7 4.3 0.00 0.00 0.00 86 1014.6
20260508121905 60 99 1.7 1.7 0.00 0.00 0.00 86 1014.8
20260508121403 60 99 0.9 2.6 0.00 0.00 0.00 86 1014.8
20260508120901 60 78 1.7 4.3 0.00 0.00 0.00 86 1014.6
20260508120358 60 78 1.7 1.7 0.00 0.00 0.00 86 1014.8
20260508115856 60 122 0.0 1.7 0.00 0.00 0.00 85 1014.8
20260508115353 60 111 1.7 3.5 0.00 0.00 0.00 85 1014.8
20260508114849 60 120 2.6 3.5 0.00 0.00 0.00 85 1014.7
20260508114346 60 108 0.0 2.6 0.00 0.00 0.00 86 1014.8
20260508113843 60 63 1.7 2.6 0.00 0.00 0.00 87 1014.8
20260508113341 60 80 0.0 1.7 0.00 0.00 0.00 87 1015.3
20260508112837 60 79 0.9 2.6 0.00 0.00 0.00 87 1015.3
20260508112335 60 329 1.7 3.5 0.00 0.00 0.00 87 1015.5
20260508111831 60 306 1.7 4.3 0.00 0.00 0.00 87 1015.5
20260508111328 60 14 0.0 1.7 0.00 0.00 0.00 86 1015.2
20260508110826 60 320 0.9 1.7 0.00 0.00 0.00 85 1014.8
20260508110323 60 282 0.9 1.7 0.00 0.00 0.00 86 1014.6
20260508105823 60 103 0.0 3.5 0.00 0.00 0.00 86 1014.4
20260508105320 59 146 4.3 5.2 0.00 0.00 0.00 87 1014.0
20260508104817 59 148 4.3 5.2 0.00 0.00 0.00 88 1013.7
20260508104313 59 124 4.3 5.2 0.00 0.00 0.00 87 1013.9
20260508103811 59 121 2.6 3.5 0.00 0.00 0.00 87 1013.9
20260508103307 59 123 1.7 2.6 0.00 0.00 0.00 87 1013.9
20260508102805 59 136 1.7 2.6 0.00 0.00 0.00 87 1014.0
20260508102306 59 105 1.7 2.6 0.00 0.00 0.00 87 1013.7
20260508101800 59 89 0.0 1.7 0.00 0.00 0.00 87 1013.6
20260508101257 59 103 1.7 2.6 0.00 0.00 0.00 87 1013.9
20260508100755 59 106 1.7 1.7 0.00 0.00 0.00 87 1013.9
20260508100253 59 134 1.7 2.6 0.00 0.00 0.00 88 1014.2
20260508095749 59 132 2.6 3.5 0.00 0.00 0.00 88 1014.3
20260508095246 59 131 3.5 4.3 0.00 0.00 0.00 88 1013.9
20260508094743 59 109 2.6 5.2 0.00 0.00 0.00 88 1013.7
20260508094240 60 122 3.5 4.3 0.00 0.00 0.00 88 1013.6
20260508093737 60 119 1.7 3.5 0.00 0.00 0.00 87 1014.1
20260508093235 60 113 1.7 2.6 0.00 0.00 0.00 87 1014.1
20260508092731 60 118 3.5 4.3 0.00 0.00 0.00 87 1013.7
20260508092230 60 113 1.7 5.2 0.00 0.00 0.00 87 1013.7
20260508091728 60 117 2.6 4.3 0.00 0.00 0.00 87 1013.9
20260508091224 60 112 3.5 3.5 0.00 0.00 0.00 86 1014.1